Regional Weather Roundup
Issued by NWS Goodland, KS

Home | Current Version | Previous Version | Graphics & Text | Print | Product List | Glossary On
Versions: 1 2 3 4 5 6 7 8 9 10 11 12 13 14 15 16 17 18 19 20 21 22 23 24 25 26 27 28 29 30 31 32 33 34 35 36 37 38 39 40 41 42 43 44 45 46 47 48 49 50
297
ASUS43 KGLD 282159
RWRGLD

GOODLAND FORECAST AREA HOURLY WEATHER ROUNDUP
NATIONAL WEATHER SERVICE GOODLAND KS
400 PM MDT WED JUN 28 2017

...OFFICIAL OBSERVATIONS...

CITY           SKY/WX    TMP DP  RH WIND       PRES   REMARKS
GOODLAND KS    SUNNY     89  48  24 S8        29.79F
HILL CITY KS   SUNNY     93  62  35 E6        29.71F
IMPERIAL NEB   MOSUNNY   91  39  16 N6        29.77F
MCCOOK NEB     MOSUNNY   91  48  22 E7        29.73F
AKRON CO       MOSUNNY   84  39  20 CALM      29.85F
BURLINGTON CO  SUNNY     90  45  21 E12G18    29.83F
LIMON CO       SUNNY     85  35  16 S13G24    29.87F
$$

...UNOFFICIAL OBSERVATIONS...

CITY           SKY/WX    TMP DP  RH WIND       PRES   REMARKS
LENORA KS        N/A     93  32  11 MISG        N/A
NORTON KS      SUNNY     93  36  13 E3        29.72
SHARON SPRINGS   N/A     89  51  26 E5G13       N/A
TRENTON NEB      N/A     92  32  12 CALM        N/A
KIT CARSON CO    N/A     90  45  20 MISG        N/A
YUMA CO        FAIR      81  46  30 SE8       29.82F
$$




USA.gov is the U.S. government's official web portal to all federal, state and local government web resources and services.